TimeCDT,TemperatureF,Dew PointF,Humidity,Sea Level PressureIn,VisibilityMPH,Wind Direction,Wind SpeedMPH,Gust SpeedMPH,PrecipitationIn,Events,Conditions,WindDirDegrees,DateUTC
12:15 AM,63.5,63.0,98,29.79,10.0,Calm,Calm,-,N/A,,Clear,0,2013-06-26 05:15:00
12:35 AM,63.0,62.1,97,29.79,10.0,Calm,Calm,-,N/A,,Clear,0,2013-06-26 05:35:00
12:55 AM,63.0,61.5,95,29.79,10.0,Calm,Calm,-,N/A,,Clear,0,2013-06-26 05:55:00
1:15 AM,62.8,61.5,96,29.80,10.0,Calm,Calm,-,N/A,,Clear,0,2013-06-26 06:15:00
1:35 AM,63.1,62.4,97,29.80,10.0,Calm,Calm,-,N/A,,Scattered Clouds,0,2013-06-26 06:35:00
1:55 AM,63.7,63.5,99,29.79,10.0,Calm,Calm,-,N/A,,Scattered Clouds,0,2013-06-26 06:55:00
2:15 AM,62.6,62.1,98,29.79,1.8,Calm,Calm,-,N/A,,Mostly Cloudy,0,2013-06-26 07:15:00
2:35 AM,62.4,61.0,95,29.79,10.0,Calm,Calm,-,N/A,,Scattered Clouds,0,2013-06-26 07:35:00
2:55 AM,62.2,61.7,98,29.78,10.0,Calm,Calm,-,N/A,,Clear,0,2013-06-26 07:55:00
3:35 AM,63.5,62.8,97,29.78,10.0,Calm,Calm,-,N/A,,Mostly Cloudy,0,2013-06-26 08:35:00
3:55 AM,62.8,62.1,97,29.78,10.0,Calm,Calm,-,N/A,,Overcast,0,2013-06-26 08:55:00
4:15 AM,62.6,61.9,97,29.78,10.0,Calm,Calm,-,N/A,,Overcast,0,2013-06-26 09:15:00
4:35 AM,62.6,62.2,99,29.77,5.0,Calm,Calm,-,N/A,,Mostly Cloudy,0,2013-06-26 09:35:00
4:55 AM,63.9,63.7,99,29.78,7.0,Calm,Calm,-,N/A,,Mostly Cloudy,0,2013-06-26 09:55:00
5:15 AM,65.3,64.9,99,29.77,5.0,Calm,Calm,-,N/A,,Overcast,0,2013-06-26 10:15:00
5:35 AM,64.4,63.5,97,29.77,10.0,Calm,Calm,-,N/A,,Scattered Clouds,0,2013-06-26 10:35:00
5:55 AM,64.9,64.4,98,29.76,4.0,Calm,Calm,-,N/A,,Clear,0,2013-06-26 10:55:00
6:15 AM,67.1,66.6,98,29.77,4.0,Calm,Calm,-,N/A,,Clear,0,2013-06-26 11:15:00
6:35 AM,68.2,67.1,96,29.78,5.0,Calm,Calm,-,N/A,,Clear,0,2013-06-26 11:35:00
6:55 AM,68.9,67.5,95,29.78,7.0,SE,3.5,-,N/A,,Scattered Clouds,140,2013-06-26 11:55:00
7:15 AM,69.8,67.5,92,29.78,10.0,Calm,Calm,-,N/A,,Mostly Cloudy,0,2013-06-26 12:15:00
7:35 AM,71.4,67.1,86,29.77,10.0,SSE,4.6,-,N/A,,Overcast,150,2013-06-26 12:35:00
7:55 AM,72.5,65.8,80,29.78,10.0,SSE,3.5,-,N/A,,Overcast,160,2013-06-26 12:55:00
8:15 AM,73.4,65.5,76,29.78,10.0,SSE,3.5,-,N/A,,Scattered Clouds,150,2013-06-26 13:15:00
8:35 AM,74.7,65.5,73,29.78,10.0,SSE,8.1,-,N/A,,Clear,160,2013-06-26 13:35:00
8:55 AM,73.8,65.8,76,29.79,10.0,SSE,4.6,-,N/A,,Mostly Cloudy,160,2013-06-26 13:55:00
9:15 AM,75.2,66.0,73,29.78,10.0,SSE,4.6,-,N/A,,Mostly Cloudy,160,2013-06-26 14:15:00
9:55 AM,77.0,67.1,71,29.76,10.0,SE,5.8,-,N/A,,Clear,140,2013-06-26 14:55:00
10:15 AM,77.2,67.3,71,29.75,10.0,SE,4.6,-,N/A,,Clear,140,2013-06-26 15:15:00
10:55 AM,78.3,68.9,73,29.75,10.0,ESE,4.6,-,N/A,,Clear,120,2013-06-26 15:55:00
11:15 AM,79.0,69.3,72,29.76,10.0,East,5.8,-,N/A,,Clear,100,2013-06-26 16:15:00
11:35 AM,79.2,69.6,72,29.76,10.0,East,5.8,-,N/A,,Clear,90,2013-06-26 16:35:00
11:55 AM,77.7,69.3,75,29.76,10.0,East,5.8,-,N/A,,Scattered Clouds,100,2013-06-26 16:55:00
12:15 PM,74.7,67.6,79,29.76,10.0,ESE,9.2,-,N/A,,Scattered Clouds,120,2013-06-26 17:15:00
12:35 PM,73.9,67.6,81,29.76,10.0,SE,8.1,-,N/A,,Scattered Clouds,130,2013-06-26 17:35:00
12:55 PM,75.0,68.0,79,29.76,10.0,SE,8.1,-,N/A,,Clear,130,2013-06-26 17:55:00
1:15 PM,77.5,68.5,74,29.76,10.0,East,4.6,-,N/A,,Clear,100,2013-06-26 18:15:00
1:35 PM,78.3,69.1,73,29.76,10.0,SE,4.6,-,N/A,,Clear,140,2013-06-26 18:35:00
1:55 PM,78.4,69.3,73,29.75,10.0,East,4.6,-,N/A,,Clear,90,2013-06-26 18:55:00
2:15 PM,80.6,70.2,70,29.74,10.0,SSE,6.9,-,N/A,,Clear,150,2013-06-26 19:15:00
2:35 PM,77.7,69.4,76,29.75,10.0,ESE,6.9,-,N/A,,Clear,110,2013-06-26 19:35:00
2:55 PM,77.4,69.4,76,29.75,10.0,SE,6.9,-,N/A,,Clear,130,2013-06-26 19:55:00
3:15 PM,77.2,70.0,78,29.75,10.0,SE,9.2,-,N/A,,Mostly Cloudy,130,2013-06-26 20:15:00
3:35 PM,77.2,69.4,77,29.75,10.0,SSE,8.1,-,N/A,,Scattered Clouds,160,2013-06-26 20:35:00
3:55 PM,76.8,69.1,77,29.75,10.0,SSE,5.8,-,N/A,,Clear,160,2013-06-26 20:55:00
4:15 PM,78.3,69.6,75,29.75,10.0,SE,6.9,-,N/A,,Clear,140,2013-06-26 21:15:00
4:35 PM,79.0,69.8,73,29.74,10.0,SE,6.9,-,N/A,,Clear,140,2013-06-26 21:35:00
4:55 PM,78.8,70.5,76,29.74,10.0,SE,6.9,-,N/A,,Clear,140,2013-06-26 21:55:00
5:15 PM,79.0,70.7,76,29.73,10.0,SSE,5.8,-,N/A,,Clear,150,2013-06-26 22:15:00
5:35 PM,80.4,70.9,73,29.73,10.0,SSE,5.8,-,N/A,,Clear,160,2013-06-26 22:35:00
5:55 PM,81.0,70.5,70,29.72,10.0,SE,4.6,-,N/A,,Clear,140,2013-06-26 22:55:00
6:15 PM,81.9,68.5,64,29.72,10.0,South,4.6,-,N/A,,Clear,180,2013-06-26 23:15:00
6:35 PM,80.1,65.5,61,29.71,10.0,South,6.9,-,N/A,,Clear,170,2013-06-26 23:35:00
6:55 PM,78.3,66.0,66,29.71,10.0,South,3.5,-,N/A,,Clear,170,2013-06-26 23:55:00
7:15 PM,77.2,66.4,69,29.72,10.0,Calm,Calm,-,N/A,,Clear,0,2013-06-27 00:15:00
7:35 PM,75.7,67.3,75,29.72,10.0,SSE,3.5,-,N/A,,Clear,150,2013-06-27 00:35:00
7:55 PM,74.3,68.0,81,29.73,10.0,Calm,Calm,-,N/A,,Clear,0,2013-06-27 00:55:00
8:15 PM,73.6,68.2,83,29.76,10.0,Calm,Calm,-,N/A,,Clear,0,2013-06-27 01:15:00
8:35 PM,73.6,68.4,84,29.76,10.0,Calm,Calm,-,N/A,,Clear,0,2013-06-27 01:35:00
8:55 PM,71.8,68.0,88,29.75,10.0,Calm,Calm,-,N/A,,Scattered Clouds,0,2013-06-27 01:55:00
9:15 PM,72.5,68.7,88,29.76,10.0,NNE,4.6,-,N/A,,Mostly Cloudy,30,2013-06-27 02:15:00
9:35 PM,74.3,66.9,78,29.76,10.0,ENE,8.1,-,N/A,,Mostly Cloudy,60,2013-06-27 02:35:00
9:55 PM,73.2,62.6,69,29.78,10.0,NNE,5.8,-,N/A,,Mostly Cloudy,30,2013-06-27 02:55:00
10:15 PM,71.6,62.8,74,29.78,10.0,ENE,4.6,-,N/A,,Mostly Cloudy,70,2013-06-27 03:15:00
10:35 PM,70.9,62.6,75,29.78,10.0,East,4.6,-,N/A,,Overcast,100,2013-06-27 03:35:00
10:55 PM,70.2,61.9,75,29.78,10.0,SE,5.8,-,N/A,,Mostly Cloudy,130,2013-06-27 03:55:00
11:15 PM,69.1,61.5,77,29.78,10.0,ENE,3.5,-,N/A,,Scattered Clouds,60,2013-06-27 04:15:00
11:35 PM,68.2,62.1,81,29.77,10.0,SE,4.6,-,N/A,,Clear,140,2013-06-27 04:35:00
11:55 PM,68.0,62.6,83,29.76,10.0,East,3.5,-,N/A,,Scattered Clouds,100,2013-06-27 04:55:00